Location: Eaton Estates
(41.3089°N, 82.0057°W)
Time: 22:47:01
(UTC+00:00)

O/OREOS (USA 219) - Visible Passes

Search period start: 22 March 2023 00:00
Search period end: 01 April 2023 00:00
Orbit: 621 x 646 km, 72.0° (Epoch: 22 May)

Date Brightness Start Highest point End Pass type
(mag) Time Alt. Az. Time Alt. Az. Time Alt. Az.
23 Mar ? 10:24:00 10° ESE 10:25:39 12° E 10:27:17 10° ENE visible
24 Mar ? 10:43:31 10° SSE 10:47:21 26° ESE 10:51:10 10° NE visible
26 Mar ? 09:50:14 10° SE 09:52:24 13° E 09:54:34 10° ENE visible
27 Mar ? 10:10:09 10° SSE 10:14:07 29° ESE 10:18:05 10° NE visible
28 Mar ? 10:31:27 10° SSW 10:36:01 68° ESE 10:40:34 10° NNE visible
29 Mar ? 09:16:35 10° SE 09:19:10 15° E 09:21:44 10° ENE visible
30 Mar ? 09:36:48 10° SSE 09:40:54 33° ESE 09:45:00 10° NE visible
31 Mar ? 09:58:14 10° SSW 10:02:49 76° ESE 10:07:24 10° NNE visible
